Weather History for KRDG - May, 2014

Change the Weather History Date:

Sunday, May 11, 2014

  Actual Average Record
Temperature  
Mean Temperature 67 °F 60 °F  
Max Temperature 78 °F 71 °F 93 °F (1948)
Min Temperature 56 °F 48 °F 33 °F (1972)
Degree Days  
Heating Degree Days 0 6  
Month to date heating degree days 54 84  
Since 1 July heating degree days 5694 5282  
Cooling Degree Days 2 1  
Month to date cooling degree days 12 11  
Year to date cooling degree days 21 20  
Growing Degree Days 16 (Base 50)    
Moisture  
Dew Point 52 °F    
Average Humidity 63    
Maximum Humidity 93    
Minimum Humidity 33    
Precipitation  
Precipitation T in 0.11 in 1.05 in (1990)
Month to date precipitation 0.69 1.33  
Year to date precipitation 16.01 14.11  
Sea Level Pressure  
Sea Level Pressure 30.05 in    
Wind  
Wind Speed 6 mph (West)    
Max Wind Speed 18 mph    
Max Gust Speed 21 mph    
Visibility 9 miles    
Events      
T = Trace of Precipitation, MM = Missing Value Source: NWS Daily Summary

Daily Weather History Graph

Daily Weather History Graph

Search for Another Location

Airport or City:

Trip Planner

Search our weather history database for the weather conditions in past years. The results will help you decide how hot, cold, wet, or windy it might be!

Date:

Astronomy

May. 11, 2014 Rise Set
Actual Time 5:51 AM EDT 8:09 PM EDT
Civil Twilight 5:21 AM EDT 8:39 PM EDT
Nautical Twilight 4:43 AM EDT 9:17 PM EDT
Astronomical Twilight 4:02 AM EDT 9:59 PM EDT
Moon 5:02 PM EDT (5/11) 3:56 AM EDT (5/11)
Length of Visible Light 15h 18m
Length of Day
14h 17m
Waxing Gibbous, 89% of the Moon is Illuminated
May 11
Waxing Gibbous
May 14
Full
May 21
Last Quarter
May 28
New
Jun 5
First Quarter

Hourly Weather History & Observations

Time (EDT) Temp. Dew Point Humidity Pressure Visibility Wind Dir Wind Speed Gust Speed Precip Events Conditions
12:54 AM 62.1 °F 59.0 °F 90% 29.95 in 10.0 mi West 4.6 mph - N/A   Clear
1:54 AM 62.1 °F 57.9 °F 86% 29.96 in 10.0 mi WSW 5.8 mph - 0.00 in   Overcast
2:54 AM 62.1 °F 57.0 °F 84% 29.96 in 10.0 mi WSW 8.1 mph - N/A   Clear
3:54 AM 60.1 °F 55.9 °F 86% 29.97 in 10.0 mi West 4.6 mph - N/A   Clear
4:54 AM 60.1 °F 55.0 °F 83% 29.99 in 10.0 mi West 5.8 mph - N/A   Clear
5:54 AM 57.9 °F 55.0 °F 90% 30.02 in 10.0 mi WNW 3.5 mph - N/A   Clear
6:21 AM 55.9 °F 54.0 °F 93% 30.02 in 1.5 mi Calm Calm - N/A   Partly Cloudy
6:23 AM 55.9 °F 54.0 °F 93% 30.02 in 0.8 mi Calm Calm - N/A   Mist
6:33 AM 55.9 °F 54.0 °F 93% 30.03 in 2.5 mi Calm Calm - N/A   Clear
6:40 AM 57.0 °F 55.0 °F 93% 30.04 in 10.0 mi Calm Calm - N/A   Clear
6:54 AM 57.9 °F 55.0 °F 90% 30.06 in 10.0 mi Calm Calm - N/A   Clear
7:54 AM 64.0 °F 55.9 °F 75% 30.08 in 10.0 mi WSW 3.5 mph - N/A   Clear
8:54 AM 66.9 °F 53.1 °F 61% 30.09 in 10.0 mi West 6.9 mph - N/A   Clear
9:54 AM 69.1 °F 51.1 °F 53% 30.10 in 10.0 mi West 10.4 mph - N/A   Clear
10:54 AM 71.1 °F 48.9 °F 45% 30.10 in 10.0 mi NNW 13.8 mph - N/A   Clear
11:54 AM 73.0 °F 46.0 °F 38% 30.11 in 10.0 mi NNW 11.5 mph - N/A   Clear
12:54 PM 75.0 °F 46.9 °F 37% 30.10 in 10.0 mi WNW 10.4 mph - N/A   Clear
1:54 PM 75.9 °F 48.0 °F 37% 30.09 in 10.0 mi West 12.7 mph 20.7 mph N/A   Clear
2:54 PM 77.0 °F 48.0 °F 36% 30.08 in 10.0 mi WSW 8.1 mph - N/A   Clear
3:54 PM 77.0 °F 46.9 °F 34% 30.06 in 10.0 mi SW 5.8 mph - N/A   Clear
4:54 PM 78.1 °F 48.0 °F 35% 30.06 in 10.0 mi West 6.9 mph - N/A   Clear
5:54 PM 77.0 °F 48.0 °F 36% 30.06 in 10.0 mi WSW 8.1 mph - N/A   Clear
6:54 PM 75.0 °F 48.0 °F 38% 30.06 in 10.0 mi SW 6.9 mph - N/A   Clear
7:54 PM 73.0 °F 46.9 °F 39% 30.07 in 10.0 mi SW 5.8 mph - N/A   Clear
8:54 PM 71.1 °F 46.9 °F 42% 30.09 in 10.0 mi Calm Calm - N/A   Clear
9:54 PM 70.0 °F 48.0 °F 46% 30.09 in 10.0 mi South 3.5 mph - N/A   Clear
10:54 PM 64.0 °F 50.0 °F 60% 30.10 in 10.0 mi Calm Calm - N/A   Clear